• In Russia
  • List of Countries
  • For 7 days
  • Water Temperature
  • Satellite Maps
  • Weather Map
  • Weather Widgets
  • user-avatar
    Login

    Hourly Weather Zaranj

    Today, 19 October, Friday

    Time Temperature Precipitation Wind Pressure Humidity
    00:00 +20°C° 0 mm 6 mps 721 mmHg 22%
    01:00 +20°C° 0 mm 6 mps 721 mmHg 23%
    02:00 +19°C° 0 mm 6 mps 721 mmHg 23%
    03:00 +19°C° 0 mm 6 mps 721 mmHg 24%
    04:00 +17°C° 0 mm 7 mps 721 mmHg 25%
    05:00 +17°C° 0 mm 7 mps 721 mmHg 25%
    06:00 +17°C° 0 mm 6 mps 722 mmHg 25%
    07:00 +17°C° 0 mm 6 mps 722 mmHg 25%
    08:00 +20°C° 0 mm 6 mps 722 mmHg 22%
    09:00 +21°C° 0 mm 7 mps 722 mmHg 19%
    10:00 +23°C° 0 mm 7 mps 723 mmHg 17%
    11:00 +24°C° 0 mm 7 mps 722 mmHg 16%
    12:00 +26°C° 0 mm 6 mps 722 mmHg 15%
    13:00 +27°C° 0 mm 6 mps 722 mmHg 14%
    14:00 +27°C° 0 mm 6 mps 721 mmHg 13%
    15:00 +27°C° 0 mm 6 mps 721 mmHg 13%
    16:00 +27°C° 0 mm 6 mps 721 mmHg 13%
    17:00 +26°C° 0 mm 6 mps 721 mmHg 15%
    18:00 +25°C° 0 mm 5 mps 721 mmHg 16%
    19:00 +22°C° 0 mm 4 mps 721 mmHg 17%
    20:00 +22°C° 0 mm 4 mps 722 mmHg 18%
    21:00 +21°C° 0 mm 4 mps 722 mmHg 19%
    22:00 +21°C° 0 mm 5 mps 722 mmHg 20%
    23:00 +20°C° 0 mm 5 mps 722 mmHg 21%

    Tomorrow, 20 October, Saturday

    Time Temperature Precipitation Wind Pressure Humidity
    00:00 +20°C° 0 mm 4 mps 722 mmHg 21%
    01:00 +19°C° 0 mm 4 mps 722 mmHg 22%
    02:00 +19°C° 0 mm 4 mps 722 mmHg 23%
    03:00 +18°C° 0 mm 4 mps 722 mmHg 23%
    04:00 +18°C° 0 mm 4 mps 722 mmHg 24%
    05:00 +18°C° 0 mm 4 mps 722 mmHg 24%
    06:00 +18°C° 0 mm 4 mps 722 mmHg 24%
    07:00 +18°C° 0 mm 3 mps 723 mmHg 24%
    08:00 +20°C° 0 mm 4 mps 723 mmHg 21%
    09:00 +21°C° 0 mm 4 mps 723 mmHg 18%
    10:00 +23°C° 0 mm 4 mps 724 mmHg 15%
    11:00 +25°C° 0 mm 4 mps 723 mmHg 14%
    12:00 +26°C° 0 mm 3 mps 723 mmHg 13%
    13:00 +27°C° 0 mm 3 mps 722 mmHg 11%
    14:00 +27°C° 0 mm 3 mps 722 mmHg 11%
    15:00 +28°C° 0 mm 3 mps 722 mmHg 11%
    16:00 +28°C° 0 mm 3 mps 721 mmHg 11%
    17:00 +26°C° 0 mm 2 mps 721 mmHg 12%
    18:00 +25°C° 0 mm 2 mps 722 mmHg 13%
    19:00 +24°C° 0 mm 1 mps 722 mmHg 14%
    20:00 +23°C° 0 mm 1 mps 722 mmHg 14%
    21:00 +23°C° 0 mm 1 mps 722 mmHg 15%
    22:00 +22°C° 0 mm 1 mps 722 mmHg 16%
    23:00 +22°C° 0 mm 1 mps 722 mmHg 16%

    Day after tomorrow, 21 October, Sunday

    Time Temperature Precipitation Wind Pressure Humidity
    00:00 +21°C° 0 mm 1 mps 722 mmHg 17%
    01:00 +21°C° 0 mm 1 mps 721 mmHg 18%
    02:00 +20°C° 0 mm 2 mps 721 mmHg 19%
    03:00 +20°C° 0 mm 2 mps 721 mmHg 20%
    04:00 +19°C° 0 mm 2 mps 721 mmHg 20%
    05:00 +19°C° 0 mm 2 mps 721 mmHg 20%
    06:00 +20°C° 0 mm 2 mps 722 mmHg 20%
    07:00 +21°C° 0 mm 1 mps 722 mmHg 19%
    08:00 +22°C° 0 mm 1 mps 722 mmHg 17%
    09:00 +24°C° 0 mm 1 mps 723 mmHg 15%
    10:00 +26°C° 0 mm 1 mps 723 mmHg 12%
    11:00 +27°C° 0 mm 1 mps 722 mmHg 11%
    12:00 +28°C° 0 mm 1 mps 722 mmHg 11%
    13:00 +29°C° 0 mm 1 mps 721 mmHg 10%
    14:00 +29°C° 0 mm 1 mps 721 mmHg 10%
    15:00 +30°C° 0 mm 1 mps 721 mmHg 10%
    16:00 +30°C° 0 mm 2 mps 721 mmHg 10%
    17:00 +29°C° 0 mm 2 mps 721 mmHg 11%
    18:00 +28°C° 0 mm 2 mps 721 mmHg 11%
    19:00 +27°C° 0 mm 2 mps 721 mmHg 12%
    20:00 +26°C° 0 mm 1 mps 721 mmHg 12%
    21:00 +25°C° 0 mm 1 mps 721 mmHg 13%
    22:00 +24°C° 0 mm 1 mps 721 mmHg 14%
    23:00 +24°C° 0 mm 1 mps 721 mmHg 14%

    22 October, Monday

    Time Temperature Precipitation Wind Pressure Humidity
    00:00 +23°C° 0 mm 1 mps 720 mmHg 14%
    01:00 +23°C° 0 mm 1 mps 720 mmHg 14%
    02:00 +23°C° 0 mm 1 mps 720 mmHg 15%
    03:00 +22°C° 0 mm 1 mps 720 mmHg 15%
    04:00 +21°C° 0 mm 2 mps 720 mmHg 15%
    05:00 +21°C° 0 mm 2 mps 720 mmHg 15%
    06:00 +23°C° 0 mm 2 mps 720 mmHg 15%
    07:00 +23°C° 0 mm 2 mps 721 mmHg 15%
    08:00 +25°C° 0 mm 1 mps 721 mmHg 14%
    09:00 +27°C° 0 mm 1 mps 721 mmHg 12%
    10:00 +28°C° 0 mm 1 mps 721 mmHg 10%
    11:00 +29°C° 0 mm 1 mps 721 mmHg 10%
    12:00 +30°C° 0 mm 1 mps 720 mmHg 10%
    13:00 +29°C° 0 mm 0 mps 720 mmHg 9%
    14:00 +32°C° 0 mm 1 mps 719 mmHg 10%
    15:00 +32°C° 0 mm 1 mps 719 mmHg 10%
    16:00 +32°C° 0 mm 2 mps 719 mmHg 10%
    17:00 +31°C° 0 mm 2 mps 719 mmHg 11%
    18:00 +29°C° 0 mm 1 mps 719 mmHg 12%
    19:00 +28°C° 0 mm 1 mps 719 mmHg 13%
    20:00 +27°C° 0 mm 1 mps 719 mmHg 13%
    21:00 +26°C° 0 mm 1 mps 719 mmHg 14%
    22:00 +24°C° 0 mm 0 mps 719 mmHg 15%
    23:00 +25°C° 0 mm 1 mps 719 mmHg 15%

    23 October, Tuesday

    Time Temperature Precipitation Wind Pressure Humidity
    00:00 +25°C° 0 mm 1 mps 718 mmHg 16%
    01:00 +24°C° 0 mm 1 mps 718 mmHg 16%
    02:00 +24°C° 0 mm 1 mps 718 mmHg 17%
    03:00 +24°C° 0 mm 1 mps 718 mmHg 17%
    04:00 +23°C° 0 mm 1 mps 718 mmHg 17%
    05:00 +24°C° 0 mm 1 mps 718 mmHg 17%
    06:00 +24°C° 0 mm 1 mps 718 mmHg 16%
    07:00 +24°C° 0 mm 1 mps 719 mmHg 16%
    08:00 +26°C° 0 mm 1 mps 719 mmHg 15%
    09:00 +28°C° 0 mm 1 mps 719 mmHg 13%
    10:00 +30°C° 0 mm 1 mps 720 mmHg 11%
    11:00 +31°C° 0 mm 1 mps 719 mmHg 11%
    12:00 +32°C° 0 mm 1 mps 719 mmHg 11%
    13:00 +33°C° 0 mm 1 mps 718 mmHg 11%
    14:00 +33°C° 0 mm 1 mps 718 mmHg 11%
    15:00 +33°C° 0 mm 1 mps 718 mmHg 11%
    16:00 +34°C° 0 mm 2 mps 717 mmHg 11%
    17:00 +32°C° 0 mm 2 mps 718 mmHg 12%
    18:00 +31°C° 0 mm 2 mps 718 mmHg 13%
    19:00 +29°C° 0 mm 2 mps 718 mmHg 14%
    20:00 +29°C° 0 mm 2 mps 718 mmHg 14%
    21:00 +28°C° 0 mm 1 mps 718 mmHg 15%
    22:00 +27°C° 0 mm 1 mps 718 mmHg 16%
    23:00 +27°C° 0 mm 1 mps 717 mmHg 16%

    24 October, Wednesday

    Time Temperature Precipitation Wind Pressure Humidity
    00:00 +26°C° 0 mm 1 mps 717 mmHg 17%
    01:00 +26°C° 0 mm 2 mps 717 mmHg 17%
    02:00 +26°C° 0 mm 2 mps 717 mmHg 19%
    03:00 +25°C° 0 mm 2 mps 717 mmHg 20%
    04:00 +25°C° 0 mm 3 mps 717 mmHg 21%
    05:00 +24°C° 0 mm 3 mps 717 mmHg 22%
    06:00 +23°C° 0 mm 4 mps 718 mmHg 23%
    07:00 +23°C° 0 mm 4 mps 718 mmHg 24%
    08:00 +26°C° 0 mm 5 mps 718 mmHg 22%
    09:00 +28°C° 0 mm 5 mps 719 mmHg 19%
    10:00 +30°C° 0 mm 5 mps 719 mmHg 16%
    11:00 +32°C° 0 mm 5 mps 718 mmHg 15%
    12:00 +33°C° 0 mm 5 mps 718 mmHg 14%
    13:00 +34°C° 0 mm 5 mps 717 mmHg 13%
    14:00 +34°C° 0 mm 5 mps 717 mmHg 13%
    15:00 +33°C° 0 mm 5 mps 717 mmHg 13%
    16:00 +33°C° 0 mm 5 mps 717 mmHg 13%
    17:00 +32°C° 0 mm 4 mps 717 mmHg 15%
    18:00 +30°C° 0 mm 3 mps 717 mmHg 16%
    19:00 +28°C° 0 mm 3 mps 717 mmHg 18%
    20:00 +28°C° 0 mm 3 mps 717 mmHg 19%
    21:00 +27°C° 0 mm 4 mps 717 mmHg 20%
    22:00 +26°C° 0 mm 4 mps 718 mmHg 21%
    23:00 +26°C° 0 mm 4 mps 717 mmHg 22%
    Show more